Weather Roundup
Issued by NWS Chicago, IL

Home | Current Version | Previous Version | Text Only | Print | Product List | Glossary On
Versions: 1 2 3 4 5 6 7 8 9 10 11 12 13 14 15 16 17 18 19 20 21 22 23 24 25 26 27 28 29 30 31 32 33 34 35 36 37 38 39 40 41 42 43 44 45 46 47 48 49 50
000
NZUS59 KLOT 010910
HRRLOT

CHICAGO AREA WEATHER ROUNDUP
NATIONAL WEATHER SERVICE CHICAGO/ROMEOVILLE IL
300 AM CST SUN MAR 01 2015

NOTE: "FAIR" INDICATES FEW OR NO CLOUDS BELOW 12,000 FEET WITH NO
SIGNIFICANT WEATHER AND/OR OBSTRUCTIONS TO VISIBILITY.

* THESE STATIONS ARE NOT UNDER NWS QUALITY CONTROL. THEY ALSO MAY NOT
  REPORT WEATHER SUCH AS PRECIPITATION OR FOG.

ILZ005-006-012>014-019>023-011000-
NORTHEAST ILLINOIS

CITY           SKY/WX    TMP DP  RH WIND       PRES   REMARKS
OHARE          MOCLDY    13   9  84 S3        30.39F FOG
MIDWAY         CLOUDY    20  15  81 CALM      30.40F
AURORA         FOG        6   3  87 CALM      30.40S VSB 1/4
LANSING*       CLOUDY    19  16  87 S3        30.41F
JOLIET*        MOCLDY    17  15  90 CALM      30.41F FOG
WAUKEGAN       PTCLDY     6   5  95 CALM      30.39F FOG
DUPAGE AIRPORT CLOUDY    12   9  87 CALM      30.38F FOG
WHEELING       PTCLDY    12   8  84 CALM      30.41F FOG
KANKAKEE*      MIX PCPN  19  17  91 CALM      30.40F
MORRIS*        MOCLDY    18  17  95 CALM      30.40F
LEWIS AIRPORT* MOCLDY    17  15  89 S3        30.39F
NORTHERLY IS     N/A     20  15  81 S2          N/A
$$

WIZ051-052-058>065-066-070>072-011000-
SOUTHEAST WISCONSIN

CITY           SKY/WX    TMP DP  RH WIND       PRES   REMARKS
MILWAUKEE      PTCLDY    13   8  81 SW5       30.39F WCI   5
KENOSHA*       PTCLDY     6   3  87 CALM      30.39F FOG
RACINE*        PTCLDY    10   6  84 W3        30.41F
BURLINGTON     MOCLDY     4   1  87 SW3       30.39S
WAUKESHA       FLURRIES  10   9  92 S3        30.38F
WEST BEND      LGT SNOW  12   9  85 SW3       30.37F
$$

INZ001>003-010>013-019-020-011000-
NORTHWEST INDIANA

CITY           SKY/WX    TMP DP  RH WIND       PRES   REMARKS
GARY*          CLOUDY    21  14  74 CALM      30.41F
MICHIGAN CITY* NOT AVBL
RENSSELAER*    NOT AVBL
VALPARAISO     CLOUDY    17  14  88 E3        30.39F
$$

LMZ740>746-011000-
SOUTHERN LAKE MICHIGAN

STATION/POSITION TIME  SKY/WX   TEMP WIND        PRES    VSBY
                                AIR  DIR/SP/G
                 (UTC)          (F)  (DEG/KT/KT) (MB)    (MI)
HARRISON CRIB    0900            20  180/  8/ 10   N/A
BURNHAM HARBOR   0900            20  190/  2/  5   N/A
CALUMET HARBOR   0900            19  160/  2/  4 1028.2
BURNS HARBOR     NOT AVBL
MICHIGAN CITY    0900            18  130/  4/  5   N/A
$$

ABBREVIATIONS USED IN REMARKS
   TC - TEMPERATURE IN CELSIUS
  WCI - WIND CHILL INDEX
   HX - HEAT INDEX
  VSB - VISIBILITY
$$


USA.gov is the U.S. government's official web portal to all federal, state and local government web resources and services.